Tracking 23762 objects as of 22-Oct-2021
HD Live streaming from Space Station
objects crossing your sky now

FEES

Track FEES now!
10-day predictions
FEES is classified as:


NORAD ID: 48082
Int'l Code: 2021-022AL
Perigee: 542.0 km
Apogee: 562.1 km
Inclination: 97.5 °
Period: 95.5 minutes
Semi major axis: 6923 km
RCS: Unknown
Launch date: March 22, 2021
Source: Italy (IT)
Launch site: TYURATAM MISSILE AND SPACE COMPLEX (TTMTR)

Uplink (MHz):
Downlink (MHz): 437.200
Beacon (MHz):
Mode: 9600bps FSK/Lora
Call sign:
Status: Active

aabbcc
Your satellite tracking list
Your tracking list is empty




NASA's NSSDC Master Catalog

Two Line Element Set (TLE):
1 48082U 21022AL  21295.49487621  .00002103  00000-0  14379-3 0  9992
2 48082  97.5453 195.3463 0014509 225.0045 135.0008 15.07137002 30719
Source of the keplerian elements: AFSPC